JBU20 EGLL-KJFK

Flight info

Callsign JBU20
Flight time N/A
Altitude 34000
Route CPT L9 BUCGO DCT FELCA DCT OFSOX DCT BANBA DCT TOBOR/M077F340 DCT 5230N02000W 5130N03000W 5030N04000W 4930N05000W DCT IBERG/N0441F340 N364A TUSKY DCT PLYMM PARCH4
Aircraft A21N/M-SDE2E3FGHIRWXY/LB1

Departure

Time 2026-05-06 08:57
Airport London Heathrow Airport (EGLL)

Arrival

Time N/A
Airport John F. Kennedy International Airport (KJFK)
Time Latitude Longitude Altitude Speed Heading
2026-05-06 07:16 51.47037 -0.44679 92 ft 0 kts 270°
2026-05-06 08:41 51.47037 -0.44676 91 ft 2 kts 270°
2026-05-06 08:41 51.47037 -0.44635 91 ft 4 kts 265°
2026-05-06 08:42 51.47042 -0.44592 91 ft 4 kts 250°
2026-05-06 08:42 51.47054 -0.44561 93 ft 4 kts 204°
2026-05-06 08:42 51.47063 -0.44556 92 ft 0 kts 180°
2026-05-06 08:46 51.47053 -0.44556 93 ft 3 kts 179°
2026-05-06 08:46 51.47017 -0.44556 91 ft 7 kts 179°
2026-05-06 08:46 51.46955 -0.44553 91 ft 11 kts 178°
2026-05-06 08:47 51.46866 -0.44552 91 ft 15 kts 180°
2026-05-06 08:47 51.46758 -0.44553 92 ft 16 kts 180°
2026-05-06 08:47 51.46700 -0.44562 93 ft 7 kts 203°
2026-05-06 08:47 51.46668 -0.44620 92 ft 8 kts 250°
2026-05-06 08:48 51.46663 -0.44709 92 ft 8 kts 268°
2026-05-06 08:48 51.46663 -0.44808 92 ft 9 kts 270°
2026-05-06 08:48 51.46664 -0.44923 92 ft 11 kts 270°
2026-05-06 08:48 51.46664 -0.45047 92 ft 11 kts 270°
2026-05-06 08:49 51.46663 -0.45180 92 ft 13 kts 270°
2026-05-06 08:49 51.46662 -0.45326 92 ft 13 kts 269°
2026-05-06 08:49 51.46662 -0.45479 91 ft 14 kts 270°
2026-05-06 08:49 51.46662 -0.45640 91 ft 15 kts 270°
2026-05-06 08:50 51.46661 -0.45806 91 ft 15 kts 270°
2026-05-06 08:50 51.46661 -0.45978 91 ft 16 kts 270°
2026-05-06 08:50 51.46660 -0.46155 91 ft 16 kts 269°
2026-05-06 08:50 51.46660 -0.46336 95 ft 16 kts 270°
2026-05-06 08:51 51.46659 -0.46520 95 ft 17 kts 270°
2026-05-06 08:51 51.46658 -0.46713 95 ft 17 kts 269°
2026-05-06 08:51 51.46657 -0.46906 95 ft 18 kts 269°
2026-05-06 08:51 51.46656 -0.47104 92 ft 18 kts 270°
2026-05-06 08:52 51.46656 -0.47305 91 ft 18 kts 269°
2026-05-06 08:52 51.46655 -0.47510 91 ft 18 kts 270°
2026-05-06 08:52 51.46654 -0.47718 91 ft 19 kts 270°
2026-05-06 08:52 51.46654 -0.47927 91 ft 18 kts 270°
2026-05-06 08:53 51.46654 -0.48098 92 ft 10 kts 270°
2026-05-06 08:53 51.46633 -0.48197 93 ft 10 kts 213°
2026-05-06 08:53 51.46604 -0.48209 92 ft 0 kts 183°
2026-05-06 08:54 51.46596 -0.48210 92 ft 3 kts 183°
2026-05-06 08:55 51.46560 -0.48212 93 ft 6 kts 181°
2026-05-06 08:55 51.46531 -0.48213 93 ft 7 kts 181°
2026-05-06 08:55 51.46495 -0.48206 96 ft 5 kts 144°
2026-05-06 08:55 51.46485 -0.48156 96 ft 5 kts 98°
2026-05-06 08:56 51.46481 -0.48067 92 ft 18 kts 90°
2026-05-06 08:56 51.46481 -0.47514 91 ft 82 kts 89°
2026-05-06 08:56 51.46488 -0.46262 93 ft 142 kts 88°
2026-05-06 08:56 51.46492 -0.44386 175 ft 186 kts 88°
2026-05-06 08:57 51.46472 -0.42331 1033 ft 182 kts 89°
2026-05-06 08:57 51.46116 -0.40351 1813 ft 196 kts 119°
2026-05-06 08:57 51.45022 -0.38910 2235 ft 217 kts 156°
2026-05-06 08:57 51.43470 -0.38626 2594 ft 237 kts 189°
2026-05-06 08:58 51.41886 -0.39631 2861 ft 258 kts 215°
2026-05-06 08:58 51.40581 -0.41668 3297 ft 267 kts 241°
2026-05-06 08:58 51.39960 -0.44438 3979 ft 264 kts 269°
2026-05-06 08:58 51.40116 -0.47317 4766 ft 258 kts 288°
2026-05-06 08:59 51.40586 -0.50086 5552 ft 257 kts 290°
2026-05-06 08:59 51.41108 -0.52827 6324 ft 258 kts 290°
2026-05-06 08:59 51.41658 -0.55579 7011 ft 261 kts 290°
2026-05-06 08:59 51.42224 -0.58355 7640 ft 264 kts 290°
2026-05-06 09:00 51.42752 -0.61201 8249 ft 270 kts 284°
2026-05-06 09:00 51.43089 -0.64192 8878 ft 274 kts 282°
2026-05-06 09:00 51.43393 -0.67198 9480 ft 279 kts 282°
2026-05-06 09:00 51.43747 -0.70240 10017 ft 283 kts 289°
2026-05-06 09:01 51.44481 -0.73237 10357 ft 296 kts 297°